This demonstration page uses our WeatherBlox Daily Observations layout. Learn more.

Left ArrowRight Arrow

Hourly Observations for February 24, 2022

Temp ( °F °C ) Dew Point ( °F °C ) Humidity (%) Winds ( mph kmh ) Pressure ( in mb ) Visibility ( mi km ) Precip ( " mm )
12:53 am 00:53 Mostly Clear -10 -23.3 -14 -25.6 81 81 WSW 6 9 30.30 1026 10 16 0.00 0.00
1:53 am 01:53 Clear -11 -23.9 -16 -26.7 78 78 SW 6 9 30.29 1026 10 16 0.00 0.00
2:53 am 02:53 Clear -11 -23.9 -15 -26.1 82 82 W 5 7 30.29 1026 10 16 0.00 0.00
3:53 am 03:53 Clear -9 -22.8 -13 -25 82 82 WSW 3 6 30.28 1025 10 16 0.00 0.00
4:53 am 04:53 Clear -8 -22.2 -12 -24.4 82 82 Calm 30.30 1026 10 16 0.00 0.00
5:53 am 05:53 Partly Cloudy -9 -22.8 -14 -25.6 78 78 Calm 30.30 1026 10 16 0.00 0.00
6:53 am 06:53 Clear -11 -23.9 -16 -26.7 78 78 Calm 30.34 1028 10 16 0.00 0.00
7:53 am 07:53 Sunny -9 -22.8 -14 -25.6 78 78 WSW 7 11 30.36 1028 10 16 0.00 0.00
8:53 am 08:53 Sunny -3 -19.4 -8 -22.2 79 79 SW 12 19 30.35 1028 10 16 0.00 0.00
9:53 am 09:53 Cloudy 2 -16.7 -6 -21.1 69 69 SW 14 22 30.35 1028 10 16 0.00 0.00
10:53 am 10:53 Mostly Sunny 6 -14.4 -3 -19.4 66 66 W 9 15 30.35 1028 10 16 0.00 0.00
11:53 am 11:53 Sunny 8 -13.3 -2 -18.9 63 63 WSW 10 17 30.35 1028 10 16 0.00 0.00
12:53 pm 12:53 Sunny 11 -11.7 1 -17.2 64 64 WSW 10 17 30.34 1027 10 16 0.00 0.00
1:53 pm 13:53 Mostly Cloudy 13 -10.6 4 -15.6 67 67 W 9 15 30.34 1027 10 16 0.00 0.00
2:43 pm 14:43 Cloudy 15 -9.4 6 -14.4 67 67 WSW 9 15 30.36 1028 9 14 0.00 0.00
2:53 pm 14:53 Cloudy 15 -9.4 7 -13.9 70 70 W 9 15 30.34 1027 7 11 0.00 0.00
3:20 pm 15:20 Cloudy 16 -9 7 -14 67 67 W 7 11 30.35 1028 10 16 0.00 0.00
3:32 pm 15:32 Cloudy 15 -9.4 7 -13.9 70 70 WSW 8 13 30.37 1028 10 16 0.00 0.00
3:48 pm 15:48 Cloudy 18 -8 9 -13 68 68 W 8 13 30.35 1028 10 16 0.00 0.00
3:53 pm 15:53 Mostly Cloudy 17 -8.3 8 -13.3 68 68 W 10 17 30.34 1027 10 16 0.00 0.00
4:53 pm 16:53 Partly Cloudy 14 -10 7 -13.9 73 73 W 6 9 30.35 1028 10 16 0.00 0.00
5:03 pm 17:03 Mostly Cloudy 13 -10.6 6 -14.4 74 74 W 5 7 30.39 1029 10 16 0.00 0.00
5:53 pm 17:53 Mostly Cloudy 11 -11.7 6 -14.4 81 81 W 10 17 30.37 1028 10 16 0.00 0.00
6:02 pm 18:02 Partly Cloudy 10 -12 5 -15 79 79 WSW 9 15 30.42 1030 10 16 0.00 0.00
6:53 pm 18:53 Clear 5 -15 2 -16.7 87 87 SW 10 17 30.40 1029 10 16 0.00 0.00
7:53 pm 19:53 Mostly Cloudy 6 -14.4 3 -16.1 87 87 SW 9 15 30.40 1030 10 16 0.00 0.00
8:53 pm 20:53 Mostly Cloudy 2 -16.7 -1 -18.3 88 88 NW 3 6 30.40 1030 10 16 0.00 0.00
9:43 pm 21:43 Cloudy 5 -15 2 -16.7 87 87 WSW 6 9 30.48 1032 10 16 0.00 0.00
9:53 pm 21:53 Cloudy 6 -14.4 3 -16.1 87 87 W 5 7 30.39 1029 10 16 0.00 0.00
10:35 pm 22:35 Mostly Cloudy 11 -11.7 8 -13.3 88 88 WSW 6 9 30.44 1031 9 14 0.00 0.00
10:53 pm 22:53 Mostly Cloudy 12 -11.1 8 -13.3 84 84 WSW 9 15 30.37 1028 9 14 0.00 0.00
11:07 pm 23:07 Mostly Cloudy 11 -11.7 7 -13.9 84 84 WSW 9 15 30.43 1031 10 16 0.00 0.00
11:53 pm 23:53 Clear 4 -15.6 2 -16.7 91 91 WSW 8 13 30.38 1029 10 16 0.00 0.00

Powered by AerisWeather